THY23NS LTCB-LTAC

Flight info

Callsign THY23NS
Flight time 0h 49m
Altitude 38000
Route EMLAD W71 TERME UW71 ILHAN
Aircraft B38M/M-SDE1FGHILORVWXY/HB1

Departure

Time 2026-04-23 19:29
Airport Ordu–Giresun Airport (LTCB)

Arrival

Time 2026-04-23 20:19
Airport Esenboğa International Airport (LTAC)
Time Latitude Longitude Altitude Speed Heading
2026-04-23 18:51 40.96453 38.08045 28 ft 0 kts 191°
2026-04-23 19:10 40.96463 38.08047 28 ft 3 kts 188°
2026-04-23 19:10 40.96483 38.08050 28 ft 3 kts 179°
2026-04-23 19:10 40.96503 38.08048 28 ft 3 kts 167°
2026-04-23 19:11 40.96521 38.08039 28 ft 3 kts 147°
2026-04-23 19:11 40.96534 38.08023 28 ft 2 kts 111°
2026-04-23 19:11 40.96536 38.08015 28 ft 0 kts 101°
2026-04-23 19:18 40.96536 38.08016 28 ft 0 kts 103°
2026-04-23 19:18 40.96532 38.08027 28 ft 3 kts 106°
2026-04-23 19:19 40.96579 38.08074 28 ft 8 kts 11°
2026-04-23 19:19 40.96647 38.08092 27 ft 11 kts 12°
2026-04-23 19:20 40.96688 38.08104 27 ft 6 kts 12°
2026-04-23 19:20 40.96738 38.08141 27 ft 11 kts 59°
2026-04-23 19:20 40.96747 38.08208 27 ft 2 kts 87°
2026-04-23 19:20 40.96747 38.08198 27 ft 11 kts 89°
2026-04-23 19:21 40.96721 38.08038 29 ft 11 kts 78°
2026-04-23 19:21 40.96744 38.08127 27 ft 11 kts 13°
2026-04-23 19:21 40.96620 38.08082 27 ft 11 kts
2026-04-23 19:22 40.96606 38.08082 27 ft 0 kts
2026-04-23 19:22 40.96615 38.08084 27 ft 0 kts
2026-04-23 19:24 40.96616 38.08084 27 ft 1 kts
2026-04-23 19:24 40.96644 38.08091 27 ft 8 kts 11°
2026-04-23 19:24 40.96728 38.08337 25 ft 28 kts 102°
2026-04-23 19:25 40.96635 38.08927 26 ft 35 kts 102°
2026-04-23 19:25 40.96530 38.09581 27 ft 37 kts 102°
2026-04-23 19:26 40.96437 38.10213 25 ft 28 kts 85°
2026-04-23 19:26 40.96436 38.10353 27 ft 5 kts 170°
2026-04-23 19:27 40.96417 38.10291 24 ft 4 kts 278°
2026-04-23 19:27 40.96422 38.10262 29 ft 2 kts 282°
2026-04-23 19:28 40.96425 38.10241 29 ft 1 kts 282°
2026-04-23 19:28 40.96510 38.09704 27 ft 102 kts 282°
2026-04-23 19:29 40.96718 38.08443 72 ft 171 kts 283°
2026-04-23 19:29 40.97419 38.05264 1993 ft 188 kts 294°
2026-04-23 19:30 40.98803 38.01868 3368 ft 232 kts 298°
2026-04-23 19:30 40.99595 37.99904 4292 ft 240 kts 297°
2026-04-23 19:30 41.01608 37.96417 6393 ft 249 kts 324°
2026-04-23 19:31 41.03060 37.95032 7158 ft 266 kts 324°
2026-04-23 19:31 41.04613 37.93570 7966 ft 278 kts 324°
2026-04-23 19:31 41.06196 37.92098 9039 ft 280 kts 324°
2026-04-23 19:31 41.07812 37.90606 9992 ft 286 kts 325°
2026-04-23 19:32 41.09477 37.89077 10724 ft 301 kts 325°
2026-04-23 19:32 41.11272 37.87433 10866 ft 323 kts 325°
2026-04-23 19:32 41.13147 37.85716 10887 ft 331 kts 325°
2026-04-23 19:32 41.15061 37.83962 10930 ft 336 kts 324°
2026-04-23 19:33 41.16707 37.81767 11426 ft 337 kts 302°
2026-04-23 19:33 41.17609 37.78906 12362 ft 340 kts 282°
2026-04-23 19:33 41.18116 37.72570 13987 ft 349 kts 274°
2026-04-23 19:34 41.18302 37.69338 14765 ft 354 kts 274°
2026-04-23 19:34 41.18477 37.66064 15528 ft 358 kts 274°
2026-04-23 19:34 41.18809 37.59395 16954 ft 366 kts 274°
2026-04-23 19:35 41.18979 37.56010 17647 ft 370 kts 275°
2026-04-23 19:35 41.19240 37.52601 18301 ft 374 kts 276°
2026-04-23 19:35 41.19501 37.49157 18943 ft 377 kts 276°
2026-04-23 19:35 41.19761 37.45666 19568 ft 381 kts 275°
2026-04-23 19:36 41.20020 37.42147 20174 ft 384 kts 275°
2026-04-23 19:36 41.20279 37.38600 20767 ft 388 kts 275°
2026-04-23 19:36 41.20539 37.35021 21351 ft 391 kts 275°
2026-04-23 19:36 41.20678 37.31397 21880 ft 395 kts 265°
2026-04-23 19:37 41.20050 37.27906 22433 ft 397 kts 246°
2026-04-23 19:37 41.18694 37.24701 22938 ft 401 kts 237°
2026-04-23 19:37 41.17156 37.21602 23431 ft 405 kts 237°
2026-04-23 19:37 41.15594 37.18478 23945 ft 407 kts 237°
2026-04-23 19:38 41.14022 37.15335 24429 ft 411 kts 237°
2026-04-23 19:38 41.12435 37.12164 24900 ft 414 kts 236°
2026-04-23 19:38 41.10840 37.08977 25350 ft 417 kts 236°
2026-04-23 19:38 41.09227 37.05757 25774 ft 421 kts 236°
2026-04-23 19:39 41.07601 37.02511 26207 ft 424 kts 236°
2026-04-23 19:39 41.05968 36.99253 26641 ft 426 kts 236°
2026-04-23 19:39 41.04321 36.95969 27046 ft 430 kts 236°
2026-04-23 19:39 41.02663 36.92664 27447 ft 432 kts 236°
2026-04-23 19:40 41.00994 36.89338 27854 ft 435 kts 236°
2026-04-23 19:40 40.99314 36.85991 28230 ft 438 kts 236°
2026-04-23 19:40 40.97628 36.82634 28625 ft 440 kts 236°
2026-04-23 19:40 40.95922 36.79241 28922 ft 444 kts 236°
2026-04-23 19:41 40.94207 36.75829 29300 ft 446 kts 236°
2026-04-23 19:41 40.92488 36.72411 29665 ft 448 kts 236°
2026-04-23 19:41 40.90755 36.68967 30035 ft 450 kts 236°
2026-04-23 19:41 40.89020 36.65521 30406 ft 451 kts 236°
2026-04-23 19:42 40.87274 36.62053 30695 ft 455 kts 236°
2026-04-23 19:42 40.85512 36.58556 30971 ft 458 kts 236°
2026-04-23 19:42 40.83741 36.55043 31225 ft 462 kts 236°
2026-04-23 19:42 40.81958 36.51509 31567 ft 463 kts 236°
2026-04-23 19:43 40.80170 36.47964 31932 ft 464 kts 236°
2026-04-23 19:43 40.78379 36.44417 32303 ft 464 kts 236°
2026-04-23 19:43 40.76615 36.40922 32736 ft 463 kts 236°
2026-04-23 19:43 40.74811 36.37353 33158 ft 461 kts 236°
2026-04-23 19:44 40.73033 36.33836 33552 ft 461 kts 236°
2026-04-23 19:44 40.71275 36.30361 33865 ft 462 kts 236°
2026-04-23 19:44 40.69496 36.26844 34260 ft 461 kts 236°
2026-04-23 19:44 40.67720 36.23336 34630 ft 460 kts 236°
2026-04-23 19:45 40.65920 36.19782 34931 ft 461 kts 236°
2026-04-23 19:45 40.64157 36.16304 35035 ft 464 kts 236°
2026-04-23 19:45 40.62368 36.12775 35004 ft 462 kts 236°
2026-04-23 19:46 40.58808 36.05756 35002 ft 460 kts 236°
2026-04-23 19:46 40.55262 35.98776 34994 ft 458 kts 236°
2026-04-23 19:47 40.52286 35.92920 35002 ft 461 kts 236°
2026-04-23 19:47 40.48151 35.84792 34999 ft 458 kts 236°
2026-04-23 19:48 40.44598 35.77815 34999 ft 461 kts 236°
2026-04-23 19:48 40.41032 35.70821 35004 ft 461 kts 236°
2026-04-23 19:49 40.37467 35.63834 35006 ft 460 kts 236°
2026-04-23 19:49 40.33904 35.56859 35000 ft 460 kts 236°
2026-04-23 19:50 40.30367 35.49940 35005 ft 461 kts 236°
2026-04-23 19:50 40.26794 35.42959 35002 ft 462 kts 236°
2026-04-23 19:51 40.23214 35.35968 35004 ft 463 kts 236°
2026-04-23 19:51 40.19642 35.29002 34914 ft 454 kts 236°
2026-04-23 19:51 40.17884 35.25575 34158 ft 455 kts 236°
2026-04-23 19:52 40.16688 35.23244 33626 ft 457 kts 236°
2026-04-23 19:52 40.14337 35.18666 32582 ft 459 kts 236°
2026-04-23 19:52 40.12555 35.15196 31774 ft 461 kts 236°
2026-04-23 19:52 40.10763 35.11710 30936 ft 463 kts 236°
2026-04-23 19:53 40.08965 35.08214 30093 ft 465 kts 236°
2026-04-23 19:53 40.07156 35.04698 29242 ft 466 kts 236°
2026-04-23 19:53 40.05344 35.01177 28379 ft 468 kts 236°
2026-04-23 19:53 40.03529 34.97652 27497 ft 469 kts 236°
2026-04-23 19:54 40.01708 34.94118 26582 ft 470 kts 236°
2026-04-23 19:54 39.99880 34.90570 25617 ft 472 kts 236°
2026-04-23 19:54 39.98670 34.88224 25205 ft 468 kts 236°
2026-04-23 19:54 39.96844 34.84685 24995 ft 473 kts 236°
2026-04-23 19:55 39.94999 34.81109 24980 ft 477 kts 236°
2026-04-23 19:55 39.93141 34.77510 24987 ft 479 kts 236°
2026-04-23 19:55 39.91282 34.73911 25000 ft 480 kts 236°
2026-04-23 19:55 39.89418 34.70303 24975 ft 477 kts 236°
2026-04-23 19:56 39.87586 34.66761 24245 ft 470 kts 236°
2026-04-23 19:56 39.85769 34.63247 23528 ft 465 kts 236°
2026-04-23 19:56 39.83973 34.59778 22845 ft 460 kts 236°
2026-04-23 19:56 39.82365 34.56205 22162 ft 455 kts 248°
2026-04-23 19:57 39.81558 34.52269 21549 ft 449 kts 264°
2026-04-23 19:57 39.81586 34.48247 20941 ft 443 kts 275°
2026-04-23 19:57 39.81898 34.44277 20242 ft 440 kts 276°
2026-04-23 19:57 39.82228 34.40343 19624 ft 435 kts 276°
2026-04-23 19:58 39.82940 34.36560 19103 ft 428 kts 292°
2026-04-23 19:58 39.84205 34.33060 19028 ft 429 kts 296°
2026-04-23 19:58 39.85529 34.29572 18996 ft 431 kts 296°
2026-04-23 19:58 39.86858 34.26073 19000 ft 432 kts 296°
2026-04-23 19:59 39.88189 34.22570 19001 ft 431 kts 296°
2026-04-23 19:59 39.89519 34.19067 18999 ft 431 kts 296°
2026-04-23 19:59 39.90847 34.15568 19000 ft 432 kts 296°
2026-04-23 19:59 39.92178 34.12063 19002 ft 432 kts 296°
2026-04-23 20:00 39.93511 34.08549 19002 ft 432 kts 296°
2026-04-23 20:00 39.94840 34.05048 19000 ft 431 kts 296°
2026-04-23 20:00 39.96167 34.01552 18999 ft 431 kts 296°
2026-04-23 20:00 39.97496 33.98048 19001 ft 431 kts 296°
2026-04-23 20:01 39.98824 33.94547 19000 ft 432 kts 296°
2026-04-23 20:01 40.00156 33.91034 18944 ft 428 kts 296°
2026-04-23 20:01 40.01470 33.87570 18250 ft 426 kts 296°
2026-04-23 20:01 40.02758 33.84172 18059 ft 424 kts 296°
2026-04-23 20:02 40.04077 33.80694 17712 ft 419 kts 296°
2026-04-23 20:02 40.05372 33.77276 16942 ft 420 kts 296°
2026-04-23 20:02 40.06661 33.73875 16379 ft 416 kts 296°
2026-04-23 20:02 40.07939 33.70502 15775 ft 412 kts 296°
2026-04-23 20:03 40.09203 33.67165 15198 ft 409 kts 296°
2026-04-23 20:03 40.10443 33.63894 14642 ft 405 kts 296°
2026-04-23 20:03 40.11688 33.60607 14049 ft 402 kts 296°
2026-04-23 20:03 40.12922 33.57348 13535 ft 398 kts 296°
2026-04-23 20:04 40.14144 33.54122 12961 ft 395 kts 296°
2026-04-23 20:04 40.15355 33.50924 12439 ft 391 kts 296°
2026-04-23 20:04 40.16558 33.47748 11854 ft 389 kts 296°
2026-04-23 20:04 40.17752 33.44595 11330 ft 385 kts 296°
2026-04-23 20:05 40.18934 33.41471 10790 ft 382 kts 296°
2026-04-23 20:05 40.19947 33.38797 10291 ft 380 kts 296°
2026-04-23 20:05 40.21071 33.35828 9740 ft 379 kts 296°
2026-04-23 20:05 40.22232 33.32760 9358 ft 372 kts 296°
2026-04-23 20:06 40.23364 33.29770 9083 ft 362 kts 296°
2026-04-23 20:06 40.24493 33.26807 9035 ft 365 kts 298°
2026-04-23 20:06 40.26052 33.24205 8966 ft 363 kts 317°
2026-04-23 20:06 40.28155 33.22416 8403 ft 363 kts 338°
2026-04-23 20:07 40.30600 33.21736 8081 ft 357 kts 359°
2026-04-23 20:07 40.33050 33.22266 8024 ft 361 kts 20°
2026-04-23 20:07 40.35251 33.23856 8031 ft 363 kts 35°
2026-04-23 20:07 40.37290 33.25805 8031 ft 363 kts 36°
2026-04-23 20:08 40.39330 33.27781 8027 ft 364 kts 36°
2026-04-23 20:08 40.41369 33.29758 8029 ft 364 kts 36°
2026-04-23 20:08 40.43402 33.31729 8028 ft 363 kts 36°
2026-04-23 20:08 40.45585 33.33368 8015 ft 362 kts 19°
2026-04-23 20:09 40.48053 33.33927 8026 ft 361 kts 359°
2026-04-23 20:09 40.50459 33.33334 8025 ft 342 kts 338°
2026-04-23 20:09 40.52382 33.31742 8033 ft 317 kts 315°
2026-04-23 20:09 40.53580 33.29456 8031 ft 294 kts 291°
2026-04-23 20:10 40.53894 33.27775 8033 ft 280 kts 274°
2026-04-23 20:10 40.53359 33.24657 8020 ft 253 kts 237°
2026-04-23 20:10 40.52146 33.23149 8020 ft 233 kts 206°
2026-04-23 20:10 40.50619 33.22611 8043 ft 228 kts 187°
2026-04-23 20:11 40.49034 33.22387 8117 ft 229 kts 186°
2026-04-23 20:11 40.47480 33.22182 8183 ft 230 kts 186°
2026-04-23 20:11 40.45859 33.21968 8117 ft 229 kts 186°
2026-04-23 20:11 40.44274 33.21759 8041 ft 228 kts 186°
2026-04-23 20:12 40.42696 33.21552 8019 ft 228 kts 186°
2026-04-23 20:12 40.41120 33.21345 7980 ft 225 kts 186°
2026-04-23 20:12 40.39573 33.21142 7651 ft 227 kts 186°
2026-04-23 20:12 40.37987 33.20933 7381 ft 225 kts 186°
2026-04-23 20:13 40.36429 33.20729 7106 ft 224 kts 186°
2026-04-23 20:13 40.34884 33.20469 6816 ft 223 kts 195°
2026-04-23 20:13 40.33506 33.19618 6620 ft 216 kts 215°
2026-04-23 20:13 40.32342 33.18467 6611 ft 203 kts 218°
2026-04-23 20:14 40.31219 33.17359 6627 ft 201 kts 217°
2026-04-23 20:14 40.30092 33.16269 6629 ft 201 kts 217°
2026-04-23 20:14 40.28965 33.15183 6611 ft 202 kts 217°
2026-04-23 20:14 40.27827 33.14087 6384 ft 203 kts 217°
2026-04-23 20:15 40.26708 33.13009 6135 ft 202 kts 217°
2026-04-23 20:15 40.25577 33.11922 5894 ft 200 kts 217°
2026-04-23 20:15 40.24457 33.10844 5625 ft 200 kts 217°
2026-04-23 20:15 40.23347 33.09777 5389 ft 195 kts 217°
2026-04-23 20:16 40.22273 33.08744 5130 ft 189 kts 217°
2026-04-23 20:16 40.21252 33.07764 4901 ft 172 kts 217°
2026-04-23 20:16 40.20317 33.06865 4657 ft 163 kts 217°
2026-04-23 20:16 40.19414 33.05998 4437 ft 160 kts 217°
2026-04-23 20:17 40.18519 33.05138 4223 ft 159 kts 217°
2026-04-23 20:17 40.17623 33.04282 3993 ft 159 kts 217°
2026-04-23 20:17 40.16733 33.03423 3768 ft 158 kts 217°
2026-04-23 20:17 40.15851 33.02567 3585 ft 158 kts 217°
2026-04-23 20:18 40.14964 33.01720 3409 ft 158 kts 216°
2026-04-23 20:18 40.14082 33.00871 3186 ft 157 kts 216°
2026-04-23 20:18 40.13280 33.00106 3137 ft 114 kts 216°
2026-04-23 20:18 40.12792 32.99642 3139 ft 72 kts 216°
2026-04-23 20:19 40.12425 32.99293 3137 ft 65 kts 216°
2026-04-23 20:19 40.12150 32.99028 3137 ft 18 kts 216°
2026-04-23 20:19 40.12046 32.98929 3137 ft 16 kts 216°
2026-04-23 20:19 40.11971 32.98865 3138 ft 17 kts 211°
2026-04-23 20:20 40.11899 32.98877 3137 ft 0 kts 125°
2026-04-23 20:21 40.11877 32.98914 3137 ft 11 kts 127°
2026-04-23 20:21 40.11810 32.99029 3137 ft 19 kts 126°
2026-04-23 20:21 40.11723 32.99123 3137 ft 20 kts 176°
2026-04-23 20:21 40.11629 32.99017 3137 ft 14 kts 233°
2026-04-23 20:22 40.11561 32.98917 3136 ft 14 kts 224°
2026-04-23 20:22 40.11496 32.98868 3136 ft 7 kts 160°
2026-04-23 20:22 40.11470 32.98896 3137 ft 4 kts 130°
2026-04-23 20:22 40.11460 32.98912 3137 ft 1 kts 129°
2026-04-23 20:23 40.11459 32.98914 3137 ft 0 kts 129°